This is the latest recevied weather packets stored in our database for station/object KB3KAV. If no packets are shown the sender has not sent any weather packets the latest 10 day(s).
| Time | Temp. | Humidity | Pressure | Rain* | Wind** | Luminosity | Snow |
|---|---|---|---|---|---|---|---|
| 1778075735 | 13.89° C | 95% | 1036.3 hPa | 3.05 mm | - | 99 W/m² | - |
| 1778075133 | 13.89° C | 95% | 1036.2 hPa | 1.27 mm | - | 34 W/m² | - |
| 1778074532 | 13.89° C | 95% | 1036.4 hPa | 4.83 mm | - | 41 W/m² | - |
| 1778073932 | 13.89° C | 95% | 1036.7 hPa | 4.32 mm | - | 22 W/m² | - |
| 1778073332 | 13.89° C | 95% | 1036.7 hPa | 3.05 mm | - | 38 W/m² | - |
| 1778072731 | 13.33° C | 94% | 1036.9 hPa | 3.05 mm | - | 34 W/m² | - |
| 1778072127 | 13.33° C | 94% | 1036.9 hPa | 1.78 mm | - | 35 W/m² | - |
| 1778071522 | 13.33° C | 93% | 1037.2 hPa | 1.27 mm | - | 30 W/m² | - |
| 1778070918 | 12.78° C | 93% | 1037.1 hPa | 1.78 mm | - | 24 W/m² | - |
| 1778070318 | 13.33° C | 92% | 1036.9 hPa | 0 mm | - | 19 W/m² | - |
| 1778069713 | 12.78° C | 92% | 1036.5 hPa | 0 mm | - | 29 W/m² | - |
| 1778069113 | 12.78° C | 92% | 1036.5 hPa | 0 mm | - | 54 W/m² | - |
| 1778068508 | 12.78° C | 91% | 1036.3 hPa | 0 mm | - | 17 W/m² | - |
| 1778067903 | 12.78° C | 91% | 1036.5 hPa | 0 mm | - | 41 W/m² | - |
| 1778067299 | 12.22° C | 91% | 1036.6 hPa | 0 mm | - | 23 W/m² | - |
| 1778066699 | 12.22° C | 91% | 1036.3 hPa | 0 mm | - | 22 W/m² | - |
| 1778066094 | 12.22° C | 91% | 1036.6 hPa | 0 mm | - | 23 W/m² | - |
| 1778065495 | 12.22° C | 91% | 1036.6 hPa | 0 mm | - | 10 W/m² | - |
| 1778064893 | 12.22° C | 91% | 1035.9 hPa | 0 mm | - | 8 W/m² | - |
| 1778064289 | 11.67° C | 91% | 1036.1 hPa | 0 mm | - | 6 W/m² | - |
| 1778063683 | 11.67° C | 91% | 1036.1 hPa | 0 mm | - | 8 W/m² | - |
| 1778063079 | 11.67° C | 91% | 1035.8 hPa | 0 mm | - | 3 W/m² | - |
| 1778062478 | 11.67° C | 90% | 1035.4 hPa | 0 mm | - | 7 W/m² | - |
| 1778061873 | 11.67° C | 90% | 1035.7 hPa | 0 mm | - | 0 W/m² | - |
| 1778061269 | 11.67° C | 91% | 1035.9 hPa | 0 mm | - | 0 W/m² | - |
* Rain latest hour (hover to see other rain measurements)
** Current wind speed in m/s (hover to see current wind gust speed)